Tracking 19847 objects as of 16-Sep-2019
HD Live streaming from Space Station
objects crossing your sky now

FENGYUN 1C DEB

Track FENGYUN 1C DEB now!
10-day predictions


NORAD ID: 35185
Int'l Code: 1999-025DNR
Perigee: 558.5 km
Apogee: 727.1 km
Inclination: 99.6 °
Period: 97.4 minutes
Semi major axis: 7013 km
RCS: 0.0085 m2 (small)
Launch date: May 10, 1999
Source: People's Republic of China (PRC)
Launch site: Taiyaun Space Center, China (TSC)

Note: This is SATELLITE DEBRIS
aabbcc
Your satellite tracking list
Your tracking list is empty




NASA's NSSDC Master Catalog

Two Line Element Set (TLE):
1 35185U 99025DNR 19257.33863648  .00000974  00000-0  12953-3 0  9995
2 35185  99.5605 290.4256 0120147 114.7157 246.6610 14.77995223619502
Source of the keplerian elements: AFSPC